Location: Buttermere
(51.3333°N, 1.5167°W)
Time: 01:58:28
(UTC+00:00)

ATLAS 2AS CENTAUR R/B - Pass Details

Date: 18 September 2020
Orbit: 939 x 1273 km, 63.7° (Epoch: 27 October)

Event Time Altitude Azimuth Distance (km) Brightness Sun altitude
Rises 21:01:46 0° 200° (SSW) 4,194 5.6 -25.2°
Reaches altitude 10° 21:04:36 10° 195° (SSW) 3,247 5.0 -25.5°
Enters shadow 21:04:49 11° 195° (SSW) 3,178 4.9 -25.6°
Exits shadow 21:11:57 53° 129° (SE) 1,532 3.0 -26.4°
Maximum altitude 21:12:13 53° 122° (ESE) 1,529 3.1 -26.4°
Drops below altitude 10° 21:19:48 10° 49° (NE) 3,228 5.1 -27.3°
Sets 21:22:36 0° 45° (NE) 4,168 5.8 -27.6°
